Home   Weather   Kalispell   Past weeks

Flag for USA Past Weather in Kalispell, Montana, USA — Yesterday and Last 2 Weeks

44 °F

Mostly cloudy.

Feels Like: 44 °F
Forecast: 38 / 53 °F
Wind: No wind

Location: Kalispell - Glacier Park International

Current Time: Oct 25, 2016 at 11:30:58 AM

Latest Report: Oct 25, 2016 at 10:55 AM

Visibility: 10 mi

Pressure: 30.08 "Hg (26.94 "Hg at 902m altitude)

Humidity: 89%

Dew Point: 41 °F

Location of KalispellLocation

Past Weather in Kalispell — Graph


Kalispell Temperature Yesterday

Maximum temperature yesterday: 48 °F (at 3:55 PM)
Minimum temperature yesterday: 33 °F (at 7:55 AM)
Average temperature yesterday: 39 °F

High & Low Weather Summary for the Past Weeks

High56 °F (Oct 14, 2:55 PM)100% (Oct 12, 3:55 AM)30.43 "Hg (Oct 12, 3:55 AM)
Low22 °F (Oct 12, 6:55 AM)41% (Oct 11, 1:55 PM)29.42 "Hg (Oct 17, 3:55 AM)
Average41 °F85%29.97 "Hg
* Reported Oct 10 9:57 AM — Oct 25 9:55 AM, Kalispell, Weather by CustomWeather, © 2016

Note: Actual official high and low records may vary slightly from our data, if they occured in-between our weather recording intervals... More about our weather records


Kalispell Weather History for the Previous 24 Hours

Scroll right to see more
Time TempWeatherWind HumidityBarometerVisibility
9:55 AM
Tue, Oct 25
41 °FFog.No wind96%30.07 "Hg6 mi
8:55 AM40 °FLight rain. Mostly cloudy.No wind97%30.06 "Hg8 mi
7:55 AM38 °FLight rain. Low clouds.14 mph100%30.04 "Hg7 mi
6:55 AM35 °FMostly cloudy.No wind100%30.00 "Hg8 mi
5:55 AM34 °FFog.No wind100%29.98 "Hg6 mi
5:04 AM32 °FIce fog.No wind100%29.94 "Hg2 mi
4:55 AM32 °FIce fog.No wind100%29.98 "Hg4 mi
3:55 AM31 °FIce fog.No wind100%29.97 "Hg4 mi
3:04 AM31 °FIce fog.No wind100%29.92 "Hg1 mi
2:55 AM31 °FIce fog.3 mph100%29.97 "Hg1 mi
2:04 AM33 °FFog.3 mph100%29.91 "Hg2 mi
1:55 AM33 °FFog.No wind100%29.96 "Hg5 mi
12:58 AM34 °FFog.No wind97%29.92 "Hg2 mi
11:55 PM
Mon, Oct 24
33 °FPassing clouds.3 mph100%29.98 "Hg10 mi
10:59 PM34 °FFog.No wind100%29.92 "Hg1 mi
10:00 PM35 °FFog.5 mph100%29.92 "Hg2 mi
8:55 PM38 °FClear.No wind97%29.98 "Hg8 mi
7:55 PM40 °FClear.No wind97%29.98 "Hg10 mi
6:55 PM41 °FClear.No wind93%29.98 "Hg10 mi
5:55 PM45 °FSunny.No wind86%29.98 "Hg10 mi
4:55 PM47 °FSunny.No wind77%29.98 "Hg10 mi
3:55 PM48 °FSunny.No wind74%29.99 "Hg10 mi
2:55 PM46 °FPartly sunny.3 mph79%30.01 "Hg10 mi
2:03 PM44 °FMore clouds than sun.No wind85%29.99 "Hg10 mi
12:55 PM41 °FOvercast.3 mph93%30.07 "Hg10 mi
11:55 AM41 °FMostly cloudy.5 mph93%30.09 "Hg10 mi
Weather by CustomWeather, © 2016

See weather overviewHow to use our weather pages